Prestwick, United Kingdom

4:58 PM BST on June 27, 2017 (GMT +0100)
Prestwick

Weather History for EGPK - January, 2013

Change the Weather History Date:

Saturday, January 26, 2013

  Actual Average Record
Temperature  
Mean Temperature 44 °F -  
Max Temperature 50 °F 45 °F 55 °F (2016)
Min Temperature 39 °F 34 °F 24 °F (1998)
Degree Days  
Heating Degree Days 20    
Moisture  
Dew Point 39 °F    
Average Humidity 82    
Maximum Humidity 94    
Minimum Humidity 66    
Precipitation  
Precipitation 0.00 in - - ()
Sea Level Pressure  
Sea Level Pressure 29.39 in    
Wind  
Wind Speed 14 mph ()    
Max Wind Speed 24 mph    
Max Gust Speed 29 mph    
Visibility 6.2 miles    
Events Rain    
Averages and records for this station are not official NWS values.
T = Trace of Precipitation, MM = Missing Value Source: Averaged Metar Reports

Daily Weather History Graph

Daily Weather History Graph

Search for Another Location

Airport or City:

Trip Planner

Search our weather history database for the weather conditions in past years. The results will help you decide how hot, cold, wet, or windy it might be!

Date:

Astronomy

Jan. 26, 2013 Rise Set
Actual Time 8:21 AM GMT 4:41 PM GMT
Civil Twilight 7:39 AM GMT 5:22 PM GMT
Nautical Twilight 6:54 AM GMT 6:07 PM GMT
Astronomical Twilight 6:11 AM GMT 6:51 PM GMT
Moon 4:28 PM GMT (1/26) 7:26 AM GMT (1/26)
Length of Visible Light 9h 43m
Length of Day
8h 19m
Full, 100% of the Moon is Illuminated
Jan 26
Full
Jan 27
Full
Feb 3
Last Quarter
Feb 10
New
Feb 17
First Quarter

Hourly Weather History & Observations

Time (GMT) Temp. Windchill Dew Point Humidity Pressure Visibility Wind Dir Wind Speed Gust Speed Precip Events Conditions
12:50 AM 44.6 °F 39.2 °F 39.2 °F 81% 29.44 in 6.2 mi WNW 10.4 mph - N/A   Scattered Clouds
1:50 AM 44.6 °F 36.9 °F 37.4 °F 76% 29.44 in 6.2 mi WNW 18.4 mph - N/A   Scattered Clouds
2:50 AM 44.6 °F 36.1 °F 33.8 °F 66% 29.47 in 6.2 mi WNW 21.9 mph - N/A   Scattered Clouds
3:50 AM 44.6 °F 36.6 °F 33.8 °F 66% 29.47 in 6.2 mi WNW 19.6 mph - N/A   Mostly Cloudy
4:50 AM 42.8 °F 35.1 °F 33.8 °F 70% 29.50 in 6.2 mi West 16.1 mph - N/A   Scattered Clouds
5:50 AM 41.0 °F 32.5 °F 33.8 °F 76% 29.53 in 6.2 mi West 17.3 mph - N/A   Scattered Clouds
6:20 AM 41.0 °F 32.8 °F 33.8 °F 76% 29.53 in 6.2 mi West 16.1 mph 28.8 mph N/A   Partly Cloudy
6:50 AM 41.0 °F 34.3 °F 35.6 °F 81% 29.53 in 6.2 mi West 11.5 mph - N/A   Partly Cloudy
7:20 AM 41.0 °F 33.5 °F 33.8 °F 76% 29.56 in 6.2 mi West 13.8 mph - N/A Rain Light Rain Showers
7:50 AM 41.0 °F 32.8 °F 33.8 °F 76% 29.56 in 6.2 mi West 16.1 mph - N/A   Scattered Clouds
8:20 AM 41.0 °F 34.3 °F 35.6 °F 81% 29.56 in 6.2 mi WSW 11.5 mph - N/A   Scattered Clouds
8:50 AM 41.0 °F 35.2 °F 35.6 °F 81% 29.56 in 6.2 mi SW 9.2 mph - N/A   Partly Cloudy
9:20 AM 41.0 °F 33.5 °F 35.6 °F 81% 29.56 in 6.2 mi WSW 13.8 mph - N/A   Partly Cloudy
9:50 AM 42.8 °F 35.4 °F 37.4 °F 81% 29.56 in 6.2 mi WSW 15.0 mph - N/A   Scattered Clouds
10:20 AM 39.2 °F 32.5 °F 35.6 °F 87% 29.59 in 4.3 mi WSW 10.4 mph - N/A   Scattered Clouds
10:50 AM 41.0 °F 34.3 °F 37.4 °F 87% 29.59 in 6.2 mi SW 11.5 mph - N/A   Scattered Clouds
11:20 AM 42.8 °F 34.8 °F 37.4 °F 81% 29.59 in 6.2 mi SW 17.3 mph - N/A   Partly Cloudy
11:50 AM 44.6 °F 37.8 °F 37.4 °F 76% 29.56 in 6.2 mi SW 15.0 mph - N/A   Partly Cloudy
12:20 PM 44.6 °F 38.4 °F 39.2 °F 81% 29.56 in 6.2 mi SW 12.7 mph - N/A   Partly Cloudy
12:50 PM 44.6 °F 38.8 °F 37.4 °F 76% 29.56 in 6.2 mi SSW 11.5 mph - N/A   Partly Cloudy
1:20 PM 44.6 °F 38.8 °F 37.4 °F 76% 29.53 in 6.2 mi SSW 11.5 mph - N/A   Partly Cloudy
1:50 PM 44.6 °F 38.8 °F 35.6 °F 71% 29.53 in 6.2 mi South 11.5 mph 23.0 mph N/A   Partly Cloudy
2:20 PM 42.8 °F 35.8 °F 35.6 °F 76% 29.50 in 6.2 mi South 13.8 mph - N/A   Mostly Cloudy
2:50 PM 42.8 °F 37.0 °F 35.6 °F 76% 29.47 in 6.2 mi South 10.4 mph - N/A   Mostly Cloudy
3:20 PM 42.8 °F 36.6 °F 35.6 °F 76% 29.44 in 6.2 mi SSE 11.5 mph - N/A   Mostly Cloudy
3:50 PM 42.8 °F 35.8 °F 39.2 °F 87% 29.42 in 6.2 mi SSE 13.8 mph - N/A Rain Light Rain Showers
4:20 PM 42.8 °F 36.2 °F 39.2 °F 87% 29.42 in 6.2 mi SSE 12.7 mph - N/A Rain Light Rain Showers
4:50 PM 42.8 °F 36.6 °F 39.2 °F 87% 29.36 in 6.2 mi SE 11.5 mph - N/A Rain Light Rain Showers
5:20 PM 42.8 °F 38.6 °F 39.2 °F 87% 29.33 in 6.2 mi SE 6.9 mph - N/A Rain Light Rain Showers
5:50 PM 44.6 °F 38.4 °F 41.0 °F 87% 29.30 in 6.2 mi SSE 12.7 mph - N/A Rain Light Rain Showers
6:20 PM 44.6 °F 36.9 °F 42.8 °F 93% 29.27 in 6.2 mi SSE 18.4 mph - N/A Rain Light Rain Showers
6:50 PM 46.4 °F 38.1 °F 42.8 °F 87% 29.24 in 6.2 mi South 24.2 mph - N/A Rain Light Rain Showers
7:20 PM 46.4 °F 38.3 °F 42.8 °F 87% 29.21 in 6.2 mi South 23.0 mph - N/A Rain Light Rain Showers
7:50 PM 46.4 °F 38.3 °F 44.6 °F 93% 29.18 in 6.2 mi South 23.0 mph - N/A Rain Light Rain Showers
8:20 PM 46.4 °F 38.5 °F 44.6 °F 93% 29.15 in 6.2 mi SSE 21.9 mph - N/A Rain Light Rain Showers
8:50 PM 46.4 °F 38.5 °F 44.6 °F 93% 29.12 in 6.2 mi South 21.9 mph - N/A Rain Light Rain Showers
9:50 PM 48.2 °F - 46.4 °F 93% 29.06 in 6.2 mi SSE 21.9 mph - N/A Rain Rain
10:20 PM 48.2 °F - 46.4 °F 93% 29.03 in 6.2 mi SSE 21.9 mph - N/A Rain Light Rain
10:50 PM 48.2 °F - 46.4 °F 93% 29.00 in 6.2 mi SSE 21.9 mph - N/A Rain Light Rain
11:20 PM 50.0 °F - 46.4 °F 87% 28.97 in 6.2 mi SSE 19.6 mph - N/A Rain Light Rain
11:50 PM 50.0 °F - 48.2 °F 94% 28.94 in 6.2 mi South 20.7 mph - N/A Rain Light Rain